CAPE
0 0 0 0 0 0 0 0 0 0 0 0 0 0 0 0 0 0 0 0 0 0 0 0 0 0 0 0 0 0 0 0 0 0 0 0 0 0 0 0 0 0 0 0
0 0 0 0 0 0 0 0 0 0 0 0 0 0 0 0 0 0 0 0 0 0 0 0 0 0 0 0 0 0 0 0 0 0 0 0 0 0 0 0 0 0 0 0
0 0 0 0 0 0 0 0 0 0 0 0 0 0 0 0 0 0 0 0 0 0 0 0 0 0 0 0 0 0 0 0 0 0 0 0 0 0 0 0 0 0 0 0
0 0 0 0 0 0 0 0 0 0 0 0 0 0 0 0 0 0 0 0 0 0 0 0 0 0 0 0 0 0 0 0 0 0 0 0 0 0 0 0 0 0 0 0
0 0 0 0 0 0 0 0 0 0 0 0 0 0 0 0 0 0 0 0 0 0 0 0 0 0 0 0 0 0 0 0 0 0 0 0 0 0 0 0 0 0 0 0
0 0 0 0 0 0 0 0 0 0 0 0 0 0 0 0 0 0 0 0 0 0 0 0 0 0 0 0 0 0 0 0 0 0 0 0 0 0 0 0 0 0 0 0
0 0 0 0 0 0 0 0 0 0 0 0 0 0 0 0 0 0 0 0 0 0 0 0 0 0 0 0 0 0 0 0 0 0 0 0 0 0 0 0 0 0 0 0
0 0 0 0 0 0 0 0 0 0 0 0 0 0 0 0 0 0 0 0 0 0 0 0 0 0 0 0 0 0 0 0 0 0 0 0 0 0 0 0 0 0 0 0
0 0 0 0 0 0 0 0 0 0 0 0 0 0 0 0 0 0 0 0 0 0 0 0 0 0 0 0 0 0 0 0 0 0 0 0 0 0 0 0 0 0 0 0
0 0 0 0 0 0 0 0 0 0 0 0 0 0 0 0 0 0 0 0 0 0 0 0 0 0 0 0 0 0 0 0 0 0 0 0 0 0 0 0 0 0 0 0
0 0 0 0 0 0 0 0 0 0 0 0 0 0 0 0 0 0 0 0 0 0 0 0 0 0 0 0 0 0 0 0 0 0 0 0 0 0 0 0 0 0 0 0
0 0 0 0 0 0 0 0 0 0 0 0 0 0 0 0 0 0 0 0 0 0 0 0 0 0 0 0 0 0 0 0 0 0 0 0 0 0 0 0 0 0 0 0
0 0 0 0 0 0 0 0 0 0 0 0 0 0 0 0 0 0 0 0 0 0 0 0 0 0 0 0 0 0 0 0 0 0 0 0 0 1 0 0 0 0 0 0
0 0 0 0 0 0 0 1 0 0 0 0 0 0 0 0 0 0 0 0 0 0 0 0 0 0 0 0 0 0 0 0 0 0 0 0 0 1 0 0 0 0 0 0
0 0 0 0 0 0 0 0 0 0 0 0 0 0 0 0 0 0 0 0 0 0 0 0 0 0 0 0 0 0 0 0 0 0 0 0 0 0 0 1 0 0 0 0
0 0 0 0 0 0 0 0 0 0 0 0 0 0 0 0 0 0 0 0 0 0 0 0 0 0 0 0 0 0 0 0 0 0 0 0 0 0 0 0 0 0 0 0
0 0 0 0 0 0 0 0 0 0 0 0 0 0 0 0 0 0 0 0 0 0 0 0 0 0 0 0 0 0 0 0 0 0 0 0 0 0 0 0 0 0 0 0
0 0 0 0 0 0 0 0 0 0 0 0 0 0 0 0 0 0 0 0 0 0 0 0 0 0 0 0 0 0 0 0 0 0 0 0 0 0 0 0 0 0 0 0
0 0 0 0 1 0 0 0 0 0 0 0 0 0 0 0 0 0 0 0 0 0 0 0 0 0 0 0 0 0 0 0 0 0 0 0 0 0 0 0 0 0 0 0
0 0 0 0 0 0 0 0 0 0 0 0 0 0 0 0 0 0 0 0 0 0 0 0 0 0 0 0 0 0 0 0 0 0 0 0 0 0 0 0 0 0 0 0
0 0 0 0 0 0 0 0 0 0 0 0 0 0 0 0 0 0 0 0 0 0 0 0 0 0 0 0 0 0 0 0 0 0 0 0 0 0 0 0 0 0 0 0
0 0 1 0 0 0 0 0 0 0 0 0 0 0 0 0 0 0 0 0 0 0 0 0 0 0 0 0 0 0 0 0 0 0 0 0 0 0 0 0 0 0 0 0
0 0 0 0 0 0 0 0 0 0 0 0 0 0 0 0 0 0 0 0 0 0 0 0 0 0 0 0 0 0 0 0 0 0 0 0 0 0 0 0 0 0 0 0
0 0 0 0 0 0 0 0 0 0 0 0 0 0 0 0 0 0 0 0 0 0 0 0 0 0 0 0 0 0 0 0 0 0 0 0 0 0 0 0 0 0 0 0
0 0 0 0 0 0 0 0 0 0 0 0 0 0 0 0 0 0 0 0 0 0 0 0 0 0 0 0 0 0 0 0 0 0 0 0 0 0 0 0 0 0 0 0
0 0 0 0 0 0 0 0 0 0 0 0 0 0 0 0 0 0 0 0 0 0 0 0 0 0 0 0 0 0 0 0 1 1 0 1 0 0 0 0 0 0 0 0
CIN
-0 -0 -0 -0 -0 -0 -0 -0 -0 -0 -0 -0 -0 -0 -0 -0 -0 -0 -0 -0 -0 -0 -0 -0 -0 -0 -0 -0 -0 -0 -0 -0 -0 -0 -0 -0 -0 -0 -0 -0 -0 -0 -0 -0
-0 -0 -0 -0 -0 -0 -0 -0 -0 -0 -0 -0 -0 -0 -0 -0 -0 -0 -0 -0 -0 -0 -0 -0 -0 -0 -0 -0 -0 -0 -0 -0 -0 -0 -0 -0 -0 -0 -0 -0 -0 -0 -0 -0
-0 -0 -0 -0 -0 -0 -0 -0 -0 -0 -0 -0 -0 -0 -0 -0 -0 -0 -0 -0 -0 -0 -0 -0 -0 -0 -0 -0 -0 -0 -0 -0 -0 -0 -0 -0 -0 -0 -0 -0 -0 -0 -0 -0
-0 -0 -0 -0 -0 -0 -0 -0 -0 -0 -0 -0 -0 -0 -0 -0 -0 -0 -0 -0 -0 -0 -0 -0 -0 -0 -0 -0 -0 -0 -0 -0 -0 -0 -0 -0 -0 -0 -0 -0 -0 -0 -0 -0
-0 -0 -0 -0 -0 -0 -0 -0 -0 -0 -0 -0 -0 -0 -0 -0 -0 -0 -0 -0 -0 -0 -0 -0 -0 -0 -0 -0 -0 -0 -0 -0 -0 -0 -0 -0 -0 -0 -0 -0 -0 -0 -0 -0
-0 -0 -0 -0 -0 -0 -0 -0 -0 -0 -0 -0 -0 -0 -0 -0 -0 -0 -0 -0 -0 -0 -0 -0 -0 -0 -0 -0 -0 -0 -0 -0 -0 -0 -0 -0 -0 -0 -0 -0 -0 -0 -0 -0
-0 -0 -0 -0 -0 -0 -0 -0 -0 -0 -0 -0 -0 -0 -0 -0 -0 -0 -0 -0 -0 -0 -0 -0 -0 -0 -0 -0 -0 -0 -0 -0 -0 -0 -0 -0 -0 -0 -0 -0 -0 -0 -0 -0
-0 -0 -0 -0 -0 -0 -0 -0 -0 -0 -0 -0 -0 -0 -0 -0 -0 -0 -0 -0 -0 -0 -0 -0 -0 -0 -0 -0 -0 -0 -0 -0 -0 -0 -0 -0 -0 -1 -0 -0 -0 -0 -0 -0
-0 -0 -0 -0 -0 -0 -0 -0 -0 -0 -0 -0 -0 -0 -0 -0 -0 -0 -0 -0 -0 -0 -0 -0 -0 -0 -0 -0 -0 -0 -0 -0 -0 -0 -0 -0 -0 -0 -0 -0 -0 -0 -0 -0
-0 -0 -0 -0 -0 -0 -0 -0 -0 -0 -0 -0 -0 -0 -0 -0 -0 -0 -0 -0 -0 -0 -0 -0 -0 -0 -0 -0 -0 -0 -0 -0 -0 -0 -0 -0 -0 -0 -0 -0 -0 -0 -0 -0
-0 -0 -0 -0 -0 -0 -0 -0 -0 -0 -0 -0 -0 -0 -0 -0 -0 -0 -0 -0 -0 -0 -0 -0 -0 -0 -0 -0 -0 -0 -0 -0 -0 -0 -0 -0 -0 -0 -0 -0 -0 -0 -0 -0
-0 -0 -0 -0 -0 -0 -0 -3 -0 -0 -0 -0 -0 -0 -0 -0 -0 -0 -0 -0 -0 -0 -0 -0 -0 -0 -0 -0 -0 -0 -0 -0 -0 -0 -0 -0 -0 -0 -0 -0 -0 -0 -0 -0
-0 -0 -0 -0 -0 -0 -0 -0 -0 -0 -0 -0 -0 -0 -0 -0 -0 -0 -0 -0 -0 -0 -0 -0 -0 -0 -0 -0 -0 -0 -0 -0 -0 -0 -0 -0 -0 -0 -0 -0 -0 -0 -0 -0
-0 -0 -0 -0 -0 -0 -0 -0 -0 -0 -0 -0 -0 -0 -0 -0 -0 -0 -0 -0 -0 -0 -0 -0 -0 -0 -0 -0 -0 -0 -0 -0 -0 -0 -0 -0 -0 -0 -0 -0 -0 -0 -0 -0
-0 -0 -0 -0 -0 -0 -0 -0 -0 -0 -0 -0 -0 -0 -0 -0 -0 -0 -0 -0 -0 -0 -0 -0 -0 -0 -0 -0 -0 -0 -0 -0 -0 -0 -0 -0 -0 -0 -0 -0 -0 -0 -1 -0
-0 -0 -0 -0 -0 -0 -0 -0 -0 -0 -0 -0 -0 -0 -0 -0 -0 -0 -0 -0 -0 -0 -0 -0 -0 -0 -0 -0 -0 -0 -0 -0 -0 -0 -0 -0 -0 -0 -0 -0 -0 -0 -0 -0
-0 -0 -0 -0 -0 -0 -0 -0 -0 -0 -0 -0 -0 -0 -0 -0 -0 -0 -0 -0 -0 -0 -0 -0 -0 -0 -0 -0 -0 -0 -0 -0 -0 -0 -0 -0 -0 -0 -0 -0 -0 -0 -0 -0
-2 -0 -0 -0 -0 -0 -0 -0 -0 -0 -0 -0 -0 -0 -0 -0 -0 -0 -0 -0 -0 -0 -0 -0 -0 -0 -0 -0 -0 -0 -0 -0 -0 -0 -0 -0 -0 -0 -0 -0 -0 -0 -0 -0
-0 -0 -0 -0 -0 -0 -0 -0 -0 -0 -0 -0 -0 -0 -0 -0 -0 -0 -0 -0 -0 -0 -0 -0 -0 -0 -0 -0 -0 -0 -0 -0 -0 -0 -0 -0 -0 -0 -0 -0 -0 -0 -0 -0
-0 -0 -0 -0 -0 -0 -0 -0 -0 -0 -0 -0 -0 -0 -0 -0 -0 -0 -0 -0 -0 -0 -0 -0 -0 -0 -0 -0 -0 -0 -0 -0 -0 -0 -0 -0 -0 -0 -0 -0 -0 -0 -0 -0
-0 -0 -0 -0 -0 -0 -0 -0 -0 -0 -0 -0 -0 -0 -0 -0 -0 -0 -0 -0 -0 -0 -0 -0 -0 -0 -0 -0 -0 -0 -0 -0 -0 -0 -0 -0 -0 -0 -0 -0 -0 -0 -0 -0
-0 -0 -0 -1 -1 -0 -0 -0 -0 -0 -0 -0 -0 -0 -0 -0 -0 -0 -0 -0 -0 -0 -0 -0 -0 -0 -0 -0 -0 -0 -0 -0 -0 -0 -0 -0 -0 -0 -0 -0 -0 -0 -0 -0
-0 -0 -0 -0 -0 -0 -0 -0 -0 -0 -0 -0 -0 -0 -0 -0 -0 -0 -0 -0 -0 -0 -0 -0 -0 -0 -0 -0 -0 -0 -0 -0 -0 -0 -0 -0 -0 -0 -0 -0 -0 -0 -0 -0
-0 -0 -0 -0 -0 -0 -0 -0 -0 -0 -0 -0 -0 -0 -0 -0 -0 -0 -0 -0 -0 -0 -0 -0 -0 -0 -0 -0 -0 -0 -0 -0 -0 -0 -0 -0 -0 -0 -0 -0 -0 -0 -0 -0
-0 -0 -0 -0 -0 -0 -0 -0 -0 -0 -0 -0 -0 -0 -0 -0 -0 -0 -0 -0 -0 -0 -0 -0 -0 -0 -0 -0 -0 -0 -0 -0 -0 -0 -0 -0 -0 -0 -0 -0 -0 -0 -0 -0
-0 -0 -0 -0 -0 -0 -0 -0 -0 -0 -0 -0 -0 -0 -0 -0 -0 -0 -0 -0 -0 -0 -0 -0 -0 -0 -0 -0 -0 -0 -0 -0 -0 -0 -0 -0 -0 -0 -0 -0 -0 -0 -0 -0
Wind_Speed
20 22 23 23 19 24 27 28 31 33 32 35 37 41 41 38 36 35 33 32 28 19 18 16 16 17 18 19 21 21 22 22 25 27 29 29 30 31 32 32 33 32 31 32
22 24 20 20 22 24 26 30 32 32 28 36 38 45 43 36 31 27 28 26 23 21 20 20 21 21 20 18 19 20 22 23 25 26 27 27 30 29 30 28 26 26 28 29
23 22 18 21 23 24 25 29 32 34 38 34 37 40 32 27 24 23 23 22 22 21 20 19 19 18 17 18 19 21 23 24 25 26 27 28 28 27 26 26 28 28 28 29
22 18 20 20 21 23 28 26 28 32 36 37 33 43 37 24 23 23 22 21 20 19 18 17 17 18 19 21 22 23 23 25 26 26 26 27 27 28 27 27 27 28 26 26
18 18 19 20 21 21 24 25 27 29 32 36 31 30 28 20 24 24 23 20 20 19 20 20 20 21 22 23 23 23 23 24 24 25 25 25 25 25 27 27 27 27 26 25
19 17 19 19 18 19 23 26 25 23 27 34 25 24 26 25 23 22 21 21 23 23 22 21 20 21 24 22 22 22 22 25 24 23 22 24 22 23 25 27 28 27 26 24
18 19 17 17 20 18 21 24 29 30 30 32 21 25 25 22 22 22 24 24 26 24 24 25 26 23 22 20 22 21 23 24 22 21 19 19 20 22 24 24 25 25 24 24
20 25 15 16 18 20 20 21 24 31 33 30 22 25 20 19 20 22 23 26 25 25 25 26 25 24 23 21 22 22 22 22 22 20 20 19 20 20 20 21 22 23 23 22
19 21 15 15 16 17 17 19 18 21 22 25 21 19 19 16 22 21 24 25 26 27 27 26 24 24 23 22 21 21 22 22 21 21 21 20 19 19 18 17 16 16 18 20
16 21 16 16 16 17 16 15 20 18 25 26 21 19 17 14 23 25 25 29 29 29 26 24 23 24 22 20 20 22 22 21 20 20 19 19 18 17 16 16 14 14 15 16
13 17 18 16 14 14 15 16 16 17 18 23 26 22 17 11 20 23 27 29 28 24 22 24 24 23 20 20 21 21 21 21 19 19 18 16 16 17 16 15 15 15 14 13
14 17 20 18 16 17 16 16 11 17 19 19 24 30 16 9 21 25 30 29 25 24 23 22 22 21 20 20 20 20 20 21 19 17 15 15 15 16 15 15 15 14 12 12
12 17 20 19 17 17 17 12 11 16 21 18 26 29 15 12 25 28 29 27 25 23 22 21 20 20 19 19 20 20 19 20 11 10 15 15 13 13 14 15 14 14 12 13
15 17 19 22 18 17 17 13 8 10 20 21 20 18 15 24 31 31 31 27 24 22 22 21 19 19 19 19 19 18 15 8 11 16 17 13 13 14 15 15 15 15 14 15
17 23 21 21 24 23 21 16 10 10 13 22 29 23 20 32 33 33 30 26 24 23 22 21 20 20 20 20 20 19 6 8 14 15 12 11 12 12 13 14 16 16 17 17
17 24 22 25 24 24 26 17 10 11 13 15 23 33 18 22 27 29 29 26 24 24 23 23 23 23 22 22 23 20 13 15 16 14 11 12 12 13 14 15 16 16 16 16
18 20 22 24 24 28 31 20 11 15 16 13 22 24 18 23 28 30 30 27 25 26 26 26 26 26 26 27 26 23 19 15 14 13 12 14 15 14 14 14 16 17 17 17
18 19 21 24 27 29 23 19 18 14 17 14 18 20 17 23 30 32 28 22 26 29 29 29 29 29 29 29 28 26 22 18 15 14 11 11 11 11 11 12 13 14 15 15
20 19 24 25 27 32 27 21 18 17 19 14 13 15 21 29 30 21 17 24 30 32 32 32 32 32 32 31 31 28 27 23 19 13 12 9 10 10 10 11 12 13 13 13
18 20 21 24 28 29 22 16 15 17 24 17 15 21 27 30 30 22 29 33 34 33 33 33 33 33 33 33 32 31 32 29 23 16 13 12 11 10 11 11 11 13 13 12
20 22 25 26 29 29 20 15 13 20 20 17 21 26 27 28 27 34 36 34 33 33 33 33 34 35 35 35 34 35 35 36 32 25 20 18 15 13 13 13 13 12 12 13
18 19 23 22 26 31 12 13 17 16 20 21 23 25 27 28 31 32 32 32 32 33 34 34 35 36 36 36 37 38 39 38 36 32 26 22 20 17 17 15 15 14 13 13
24 20 20 18 20 18 9 15 14 18 21 21 23 23 25 27 28 29 30 30 31 32 33 34 35 37 36 36 37 39 40 39 39 38 34 27 25 22 20 19 18 18 17 16
21 20 22 21 19 15 13 16 18 19 20 19 20 22 24 26 27 28 28 29 30 31 33 34 35 36 37 37 38 38 40 40 40 39 37 33 30 28 24 23 22 21 20 19
20 14 19 22 19 16 16 15 15 17 16 17 19 21 23 25 27 28 29 29 30 32 33 34 35 36 37 37 38 38 38 38 39 38 36 34 32 30 28 26 24 23 22 21
16 18 17 20 15 17 15 10 14 14 16 18 20 22 24 26 28 29 30 30 32 34 34 34 35 36 37 37 38 38 37 38 38 39 36 34 33 31 29 29 30 25 24 24
Wind_Direction
314 307 305 312 310 312 314 313 311 313 319 315 313 311 313 312 309 308 305 304 300 305 311 308 307 307 305 304 303 305 310 315 317 317 315 316 316 316 316 318 318 318 320 320
308 302 314 316 316 314 314 313 313 317 326 321 317 313 315 316 316 317 312 312 310 307 307 307 304 304 303 303 306 309 312 315 318 319 318 317 316 321 322 327 330 331 330 329
298 311 318 316 314 313 316 315 317 317 321 323 322 319 327 330 329 331 327 325 323 317 311 311 308 309 309 308 310 312 314 317 318 317 316 318 320 323 330 334 332 334 334 334
302 310 310 312 313 319 315 326 325 325 325 321 333 318 325 334 333 333 331 329 330 329 326 321 313 310 309 308 311 313 316 316 314 317 319 315 319 323 329 333 334 336 340 340
304 308 311 313 317 325 322 330 327 328 325 324 330 324 331 342 336 336 335 333 333 330 325 319 315 312 311 310 311 315 317 314 316 311 317 321 325 331 332 335 337 339 340 345
304 317 318 318 327 330 330 329 331 332 333 325 334 330 330 334 337 341 343 339 332 329 327 322 319 316 311 313 314 313 314 307 306 320 327 326 336 338 337 336 336 338 342 346
305 310 320 323 321 334 335 334 328 327 330 329 344 333 328 339 337 339 335 335 326 327 327 319 314 316 316 317 312 314 307 300 314 330 344 346 345 342 339 340 341 341 345 348
300 303 319 326 324 328 333 336 332 325 328 333 339 331 341 350 346 342 340 323 330 330 325 315 316 315 311 311 305 304 301 305 322 336 342 347 346 349 349 348 348 347 348 351
303 306 328 332 333 338 340 338 346 337 339 334 339 343 345 357 351 351 338 326 331 322 315 315 312 300 302 305 305 301 295 308 327 336 340 345 353 355 359 2 4 2 357 354
310 306 321 323 331 332 337 348 340 344 336 335 339 339 341 351 341 340 319 317 315 316 299 280 284 307 312 307 290 286 299 317 329 342 349 354 2 6 10 11 11 9 4 0
311 311 316 324 323 328 335 334 339 341 339 334 334 339 359 7 341 336 308 304 300 284 270 283 291 305 306 270 268 277 297 310 343 353 4 13 15 14 17 16 16 13 11 8
310 313 309 314 324 324 330 333 337 335 335 331 327 323 350 355 332 330 318 310 297 294 287 283 282 275 262 256 264 270 273 277 350 9 27 25 28 21 23 22 20 21 18 16
305 306 308 314 321 321 322 329 329 333 329 325 319 319 1 344 310 308 304 301 301 302 299 291 276 261 253 256 261 262 259 334 41 84 34 33 41 39 33 31 30 29 28 25
305 304 304 304 318 323 321 328 327 324 321 324 311 318 336 314 293 289 301 297 298 304 302 297 279 270 263 257 251 247 223 115 62 23 18 43 43 38 38 37 36 33 34 31
300 296 301 305 302 304 308 313 309 297 303 318 314 318 324 295 291 288 290 287 291 296 299 296 291 282 277 269 259 251 223 101 34 27 53 52 48 50 44 40 35 34 34 35
297 295 303 302 301 304 305 309 289 296 301 302 309 253 321 315 299 292 284 282 286 292 289 289 292 291 283 271 266 331 16 13 8 26 48 40 41 37 35 33 29 32 32 33
293 296 301 300 302 302 301 310 300 320 325 319 314 317 325 317 302 287 278 274 283 290 287 286 288 289 288 286 293 316 341 358 6 17 24 18 19 25 28 28 25 21 21 23
291 294 298 300 299 295 309 322 326 324 327 328 323 321 327 323 301 285 286 280 284 288 287 287 288 291 294 297 303 308 323 339 348 355 8 11 16 20 23 21 17 17 17 18
287 290 293 295 292 294 301 310 319 326 328 330 328 328 319 311 309 311 310 294 290 289 288 287 290 293 296 300 299 305 311 321 329 339 342 352 357 358 1 1 4 6 9 9
281 285 286 291 291 292 307 319 327 330 317 333 330 317 313 309 302 314 295 292 291 290 291 292 294 297 299 301 304 305 303 311 319 326 326 329 330 332 335 340 346 350 354 358
281 283 278 282 288 294 307 316 324 312 317 333 326 317 314 309 308 301 293 292 292 295 296 298 299 299 301 302 303 302 303 303 310 317 319 318 318 317 320 326 332 337 340 343
283 284 286 283 286 290 310 311 304 317 323 326 326 323 315 313 305 305 302 297 297 299 301 302 301 302 303 304 304 303 303 305 309 312 313 311 309 308 313 314 317 321 325 327
285 287 292 288 294 306 311 313 318 320 320 325 327 327 325 318 317 314 313 307 305 305 306 307 306 305 307 309 308 305 307 309 310 309 309 309 307 305 303 304 307 311 314 315
293 290 290 293 293 297 300 311 315 320 319 325 332 330 328 325 322 323 323 320 314 313 313 312 312 311 311 313 313 311 312 313 310 311 311 309 307 304 301 299 300 302 305 307
298 300 287 288 295 299 299 306 317 320 326 329 332 333 331 328 326 325 324 325 325 320 318 319 317 315 315 317 317 318 318 320 316 315 315 314 311 307 303 298 296 295 297 299
292 290 288 293 296 295 300 303 316 320 322 326 327 329 333 333 327 326 325 325 324 323 323 323 322 321 319 320 321 322 323 322 321 320 320 319 317 314 309 305 303 297 294 297